Regional Weather Roundup
Issued by NWS Sioux Falls, SD

Home | Current Version | Previous Version | Text Only | Print | Product List | Glossary Off
Versions: 1 2 3 4 5 6 7 8 9 10 11 12 13 14 15 16 17 18 19 20 21 22 23 24 25 26 27 28 29 30 31 32 33 34 35 36 37 38 39 40 41 42 43 44 45 46 47 48 49 50

000
ASUS43 KFSD 132202
RWRFSD

WEATHER ROUNDUP FOR SE SOUTH DAKOTA/SW MINNESOTA/NW IOWA
NATIONAL WEATHER SERVICE SIOUX FALLS SD
400 PM CST WED DEC 13 2017

NOTE: "FAIR" INDICATES FEW OR NO CLOUDS BELOW 12,000 FEET WITH NO
SIGNIFICANT WEATHER AND OR OBSTRUCTIONS TO VISIBILITY.


SDZ038>040-050-052>070-132300-
SOUTHEAST SOUTH DAKOTA

CITY           SKY/WX    TMP DP  RH WIND       PRES   REMARKS
BROOKINGS      CLOUDY    32  28  85 N15       29.83R WCI  22
CHAMBERLAIN    PTCLDY    45  30  55 N14G26    29.93R
HURON          CLOUDY    37  27  67 NW23G30   29.90R
MADISON        CLOUDY    32  32 100 NW20G26   29.84R WCI  20
MITCHELL       CLOUDY    39  28  64 N26G32    29.91R
SIOUX FALLS    CLOUDY    37  30  75 NW21G26   29.83R
WINNER         FAIR      48  25  40 NW22G32   29.93R
YANKTON        CLOUDY    40  27  59 NW25G36   29.88R
$$

MNZ071-072-080-081-089-090-097-098-132300-
SOUTHWEST MINNESOTA

CITY           SKY/WX    TMP DP  RH WIND       PRES   REMARKS
JACKSON        CLOUDY    32  23  69 MISG      29.75R
LUVERNE        CLOUDY    34  28  80 N14       29.82R WCI  24
MARSHALL       CLOUDY    32  25  75 N28       29.80R WCI  18
MONTEVIDEO     CLOUDY    28  25  86 N21G29    29.81R WCI  15
PIPESTONE      CLOUDY    32  27  80 N12G17    29.80R WCI  23
REDWOOD FALLS  CLOUDY    30  21  69 NW18G37   29.78R WCI  18
WINDOM           N/A     30  18  59 NW35G52   29.75R WCI  14
WORTHINGTON    CLOUDY    31  27  85 NW24G30   29.79R WCI  17
$$

IAZ001>003-012>014-020>022-031-032-NEZ013-014-SDZ071-132300-
NORTHWEST IOWA

CITY           SKY/WX    TMP DP  RH WIND       PRES   REMARKS
CHEROKEE       CLOUDY    36  31  82 NW12G20   29.81R
DENISON        CLOUDY    39  27  60 NW28G37   29.82R
ESTHERVILLE    CLOUDY    31  22  69 NW37G52   29.74R WCI  15
LE MARS        CLOUDY    39  28  65 NW20G26   29.83R
ORANGE CITY    CLOUDY    37  34  87 NW7       29.82R
SHELDON        CLOUDY    36  30  80 NW18G26   29.79R
SIOUX CITY     CLOUDY    40  29  64 NW25G35   29.83R
SPENCER        CLOUDY    34  25  69 NW21G31   29.79R WCI  22
STORM LAKE     CLOUDY    36  28  75 NW20G26   29.78R
$$

ABBREVIATIONS USED IN REMARKS
   TC - TEMPERATURE IN CELSIUS
  WCI - WIND CHILL INDEX
   HX - HEAT INDEX
  VSB - VISIBILITY




USA.gov is the U.S. government's official web portal to all federal, state and local government web resources and services.